CZ-6A DEB, 60780

Orbit data source: Space-Track

CZ-6A DEB, 60780 is space debris in LEO originally from a launch on Tue, 06 Aug 2024 UTC launched from the Taiyaun Space Center, China (TSC). Debris objects in space refer to the collection of defunct objects orbiting the Earth. Examples of debris include non-operational satellites, rocket bodies, and fragments generated from explosions, collisions, or faulty payload assembly.

Loading next visibility...
Identifier
60780, 2024-140FF
Orbit
LEO
Country
Flag of CNCN / PRC
Related business
Manufacturer
SAST
Mission
Spacecraft
Bus & Motor
Unknown
Mass
Unknown
Launch date (UTC)
2024-08-06 (2 years ago)
Launch vehicle
Unknown
Launch site
Taiyaun Space Center, China (TSC)
Object type
Payload
Rocket body
Debris
Shape & HBR
Unknown shape, 0.1 m
Radar Cross Section
Medium (>0.1 m² and <1 m²)

Expand to show TLE details & history
Last TLE update: 14 hours ago

TLE from 14 hours ago
0 CZ-6A DEB
1 60780U 24140FF  26171.26914223  .00000310  00000-0  95401-4 0  9995
2 60780  88.9663 269.2194 0081748 357.5404   2.5382 14.37222814 97226
Epoch: 2026-06-20T06:27Z
TLE epoch observation values (Epoch: 2026-06-20T06:27:33.888Z)
Latitude
0.00002°
Longitude
-96.15799°
Altitude
712.397 km
Speed
7.53 km/s
True Right ascension
17h 56m 52s
True Declination
0° 00' 00"
Sunlit
Object was in full shadow at epoch
Visualization orbit readout
Latitude
Unknown
Longitude
Unknown
Altitude
Unknown
Speed
Unknown
Apparent Right ascension
Unknown
Apparent Declination
Unknown
Sunlit
N/A
Visualization observer readout
Local Sidereal Time
07:18:46
Azimuth
Unknown
Elevation
Unknown
Doppler factor
Unknown
Orbital elements
Apogee altitude
823.006 km
Perigee altitude
706.225 km
Semi-major axis
7,142.752 km
Eccentricity
0.00817
Inclination
88.9663°
RAAN
269.2194°
Arg. of periapsis
357.5404°
True anomaly
2.58011°
Mean anomaly
2.5382°
Eccentric anomaly
2.55911°
Mean motion
3.59538 °/min
Orbital period
100.13 mins
BSTAR
0.000095401
Loading maneuver chart data...
Computing Atmospheric mass density...
Loading historical data...
Loading historical data...
Loading historical data...
Loading historical data...
Loading historical data...
Loading historical data...
Loading historical data...

Documentation

Showing up to 5 results
|